Meteo Giornale » Osservazioni meteo Svezia » Kiruna
ore: 07:50 - Osservazioni Meteo Kiruna
Lat. 67° 49' N Lon. 20° 20' E Alt. 452 metri s.l.m.
11 °C
Coperto
Temp. 24 Ore
11 °C
16 °C
Nord/Nord-Est
9.3 Km/h
Dew point 11 °C
Umidità 100 %
Visibilità 10 Km
Il sole sorge alle ore 05:06
Il sole tramonta alle ore 20:11
| Data e Ora | Cielo e Fenomeni | T °C | DP °C | Um. % | Pres. hPa | Vis. km | Vento km/h | |
|---|---|---|---|---|---|---|---|---|
| Oggi h: 07:50 | Coperto | 11 | 11 | 100 | 1003 | 10 | N/NE 9.3 | |
| Oggi h: 07:20 | Coperto | 11 | 11 | 100 | 1003 | 10 | NE 7.4 | |
| Oggi h: 06:50 | Coperto | 11 | 11 | 100 | 1003 | 10 | NE 9.3 | |
| Oggi h: 06:20 | Coperto | 11 | 11 | 100 | 1003 | 10 | NE 9.3 | |
| Oggi h: 05:50 | Pioviggine | 11 | 11 | 100 | 1003 | 10 | E/NE 9.3 | |
| Oggi h: 05:20 | Pioggia | 11 | 11 | 100 | 1003 | 10 | NE 7.4 | |
| Oggi h: 04:50 | Pioggia | 11 | 11 | 100 | 1003 | 8 | N/NE 7.4 | |
| Oggi h: 04:20 | Pioggia | 11 | 11 | 100 | 1003 | 7 | N 9.3 | |
| Oggi h: 03:50 | Pioggia | 11 | 11 | 100 | 1003 | 6 | N 7.4 | |
| Oggi h: 03:20 | Pioggia | 11 | 11 | 100 | 1004 | 5 | N 7.4 | |
| Oggi h: 02:50 | Pioggia | 11 | 11 | 100 | 1004 | 8 | N 7.4 | |
| Oggi h: 02:20 | Pioviggine | 11 | 10 | 93 | 1004 | 10 | N/NO 7.4 | |
| Oggi h: 01:50 | Pioggia | 11 | 10 | 93 | 1004 | 10 | N/NO 9.3 | |
| Oggi h: 01:20 | Pioviggine | 11 | 10 | 93 | 1004 | 10 | N/NO 9.3 | |
| Oggi h: 00:50 | Pioviggine | 11 | 10 | 93 | 1004 | 10 | N/NO 11.1 | |
| Oggi h: 00:20 | Coperto | 11 | 10 | 93 | 1004 | 10 | N/NO 11.1 | |
| Ieri h: 23:50 | Coperto | 11 | 9 | 87 | 1005 | 10 | N 7.4 | |
| Ieri h: 23:20 | Coperto | 11 | 9 | 87 | 1005 | 10 | N/NO 9.3 | |
| Ieri h: 22:50 | Coperto | 11 | 10 | 93 | 1005 | 10 | N 5.5 | |
| Ieri h: 22:20 | Coperto | 11 | 9 | 87 | 1005 | 10 | N/NO 7.4 | |
| Ieri h: 21:50 | Sereno | 11 | 9 | 87 | 1005 | 10 | N 9.3 | |
| Ieri h: 21:20 | Sereno | 11 | 10 | 93 | 1005 | 10 | N 7.4 | |
| Ieri h: 20:50 | Sereno | 11 | 10 | 93 | 1005 | 10 | N 5.5 | |
| Ieri h: 20:20 | Sereno | 12 | 10 | 87 | 1004 | 10 | N 5.5 | |
| Ieri h: 19:50 | Sereno | 12 | 10 | 87 | 1004 | 10 | N 9.3 | |
| Ieri h: 19:20 | Molto Nuvoloso | 13 | 10 | 81 | 1004 | 10 | N 7.4 | |
| Ieri h: 18:50 | Poco Nuvoloso | 13 | 10 | 81 | 1004 | 10 | N 7.4 | |
| Ieri h: 18:20 | Molto Nuvoloso | 14 | 10 | 76 | 1004 | 10 | N 7.4 | |
| Ieri h: 17:50 | Coperto | 15 | 9 | 67 | 1004 | 10 | N 5.5 | |
| Ieri h: 17:20 | Coperto | 15 | 9 | 67 | 1004 | 10 | N 7.4 | |
| Ieri h: 16:50 | Coperto | 16 | 9 | 63 | 1004 | 10 | N 3.7 | |
| Ieri h: 16:20 | Molto Nuvoloso | 15 | 9 | 67 | 1004 | 10 | N 5.5 | |
| Ieri h: 15:50 | Coperto | 16 | 8 | 58 | 1004 | 10 | N 5.5 | |
| Ieri h: 15:20 | Coperto | 16 | 8 | 58 | 1004 | 10 | N 5.5 | |
| Ieri h: 14:50 | Molto Nuvoloso | 15 | 8 | 62 | 1004 | 10 | N 5.5 | |
| Ieri h: 14:20 | Coperto | 15 | 9 | 67 | 1004 | 10 | N 5.5 | |
| Ieri h: 13:50 | Sereno | 15 | 9 | 67 | 1004 | 10 | N 9.3 | |
| Ieri h: 13:20 | Poco Nuvoloso | 15 | 10 | 72 | 1004 | 10 | NE 7.4 | |
| Ieri h: 12:50 | Molto Nuvoloso | 15 | 10 | 72 | 1004 | 10 | E/NE 7.4 | |
| Ieri h: 12:20 | Molto Nuvoloso | 15 | 10 | 72 | 1003 | 10 | NE 9.3 | |
| Ieri h: 11:50 | Coperto | 15 | 10 | 72 | 1003 | 10 | N 5.5 | |
| Ieri h: 11:20 | Coperto | 15 | 10 | 72 | 1003 | 6 | N 5.5 | |
| Ieri h: 10:50 | Coperto | 14 | 11 | 82 | 1003 | 10 | N 3.7 | |
| Ieri h: 10:20 | Molto Nuvoloso | 14 | 11 | 82 | 1003 | 10 | N 5.5 | |
| Ieri h: 09:50 | Molto Nuvoloso | 13 | 10 | 81 | 1003 | 10 | O/SO 7.4 | |
| Ieri h: 09:20 | Molto Nuvoloso | 13 | 10 | 81 | 1003 | 10 | N 5.5 | |
| Ieri h: 08:50 | Molto Nuvoloso | 13 | 10 | 81 | 1003 | 10 | N 3.7 | |



